Weather History for KIWA - September, 2013

Change the Weather History Date:

Friday, September 6, 2013

  Actual Average Record
Temperature  
Mean Temperature 92 °F -  
Max Temperature 105 °F 99 °F 107 °F (2008)
Min Temperature 80 °F 75 °F 68 °F (2004)
Cooling Degree Days 28    
Growing Degree Days 42 (Base 50)    
Moisture  
Dew Point 54 °F    
Average Humidity 31    
Maximum Humidity 45    
Minimum Humidity 13    
Precipitation  
Precipitation 0.00 in - - ()
Sea Level Pressure  
Sea Level Pressure 29.89 in    
Wind  
Wind Speed 6 mph (SSE)    
Max Wind Speed 17 mph    
Max Gust Speed 32 mph    
Visibility 12 miles    
Events Rain , Thunderstorm    
Averages and records for this station are not official NWS values.
T = Trace of Precipitation, MM = Missing Value Source: NWS Daily Summary

Daily Weather History Graph

Daily Weather History Graph

Search for Another Location

Airport or City:

Trip Planner

Search our weather history database for the weather conditions in past years. The results will help you decide how hot, cold, wet, or windy it might be!

Date:

Astronomy

Sep. 06, 2013 Rise Set
Actual Time 6:04 AM MST 6:44 PM MST
Civil Twilight 5:39 AM MST 7:09 PM MST
Nautical Twilight 5:09 AM MST 7:39 PM MST
Astronomical Twilight 4:39 AM MST 8:09 PM MST
Moon 7:13 AM MST (9/6) 7:19 PM MST (9/6)
Length of Visible Light 13h 30m
Length of Day
12h 40m
New Moon, 2% of the Moon is Illuminated
Sep 6
New Moon
Sep 12
First Quarter
Sep 19
Full
Sep 26
Last Quarter
Oct 4
New

Hourly Weather History & Observations

Time (MST) Temp. Heat Index Dew Point Humidity Pressure Visibility Wind Dir Wind Speed Gust Speed Precip Events Conditions
12:15 AM 87.8 °F - 51.8 °F 29% 29.89 in 10.0 mi East 5.8 mph - N/A   Clear
12:35 AM 87.8 °F - 51.8 °F 29% 29.90 in 10.0 mi ESE 5.8 mph - N/A   Clear
12:55 AM 87.8 °F - 51.8 °F 29% 29.90 in 10.0 mi East 5.8 mph - N/A   Clear
1:15 AM 86.0 °F - 51.8 °F 31% 29.90 in 10.0 mi East 8.1 mph - N/A   Clear
1:35 AM 86.0 °F - 51.8 °F 31% 29.90 in 10.0 mi ESE 6.9 mph - N/A   Clear
1:55 AM 86.0 °F - 51.8 °F 31% 29.89 in 10.0 mi East 6.9 mph - N/A   Clear
2:15 AM 86.0 °F - 51.8 °F 31% 29.89 in 10.0 mi ESE 6.9 mph - N/A   Clear
2:35 AM 84.2 °F 82.8 °F 53.6 °F 35% 29.88 in 10.0 mi SE 8.1 mph - N/A   Clear
2:55 AM 82.4 °F 81.7 °F 55.4 °F 39% 29.88 in 10.0 mi SE 4.6 mph - N/A   Clear
3:15 AM 82.4 °F 81.7 °F 55.4 °F 39% 29.88 in 10.0 mi SE 5.8 mph - N/A   Clear
3:35 AM 82.4 °F 82.0 °F 57.2 °F 42% 29.89 in 10.0 mi SE 5.8 mph - N/A   Clear
3:55 AM 82.4 °F 82.0 °F 57.2 °F 42% 29.88 in 10.0 mi SE 5.8 mph - N/A   Clear
4:15 AM 80.6 °F 80.8 °F 57.2 °F 45% 29.89 in 10.0 mi SSE 6.9 mph - N/A   Clear
4:35 AM 80.6 °F 80.8 °F 57.2 °F 45% 29.89 in 10.0 mi Calm Calm - N/A   Clear
4:51 AM 84.2 °F 83.5 °F 57.2 °F 40% 29.89 in 20.0 mi ESE 5.8 mph - N/A   Scattered Clouds
4:55 AM 80.6 °F 80.5 °F 55.4 °F 42% 29.89 in 10.0 mi East 3.5 mph - N/A   Clear
5:15 AM 80.6 °F 80.5 °F 55.4 °F 42% 29.90 in 10.0 mi East 5.8 mph - N/A   Clear
5:35 AM 80.6 °F 80.5 °F 55.4 °F 42% 29.90 in 10.0 mi Calm Calm - N/A   Clear
5:47 AM 82.4 °F 81.7 °F 55.4 °F 39% 29.90 in 20.0 mi ENE 4.6 mph - N/A   Scattered Clouds
6:48 AM 84.2 °F 83.0 °F 55.4 °F 37% 29.91 in 35.0 mi ESE 4.6 mph - N/A   Partly Cloudy
7:47 AM 87.8 °F 85.7 °F 53.6 °F 31% 29.92 in 30.0 mi SE 5.8 mph - N/A   Partly Cloudy
8:47 AM 93.2 °F 91.3 °F 55.4 °F 28% 29.93 in 30.0 mi SSE 5.8 mph - N/A   Scattered Clouds
9:47 AM 95.0 °F - 51.8 °F 23% 29.94 in 30.0 mi Calm Calm - N/A   Scattered Clouds
10:47 AM 98.6 °F - 51.8 °F 21% 29.93 in 30.0 mi Variable 4.6 mph - N/A   Scattered Clouds
11:47 AM 104.0 °F - 48.2 °F 15% 29.90 in 30.0 mi Variable 4.6 mph - N/A   Scattered Clouds
12:47 PM 104.0 °F - 44.6 °F 13% 29.87 in 30.0 mi SSW 9.2 mph - N/A   Scattered Clouds
1:47 PM 105.8 °F - 44.6 °F 13% 29.84 in 30.0 mi South 6.9 mph - N/A   Mostly Cloudy
2:47 PM 105.8 °F - 48.2 °F 14% 29.80 in 15.0 mi South 15.0 mph 23.0 mph N/A   Mostly Cloudy
3:47 PM 104.0 °F - 46.4 °F 14% 29.80 in 30.0 mi SSW 11.5 mph - N/A   Mostly Cloudy
4:47 PM 104.0 °F - 46.4 °F 14% 29.81 in 0.4 mi ESE 17.3 mph 32.2 mph N/A   Unknown
4:56 PM 98.6 °F 96.4 °F 53.6 °F 22% 29.83 in 10.0 mi ESE 17.3 mph 32.2 mph N/A Rain Rain
5:38 PM 96.8 °F 95.1 °F 55.4 °F 25% 29.83 in 10.0 mi West 11.5 mph 20.7 mph N/A Thunderstorm Mostly Cloudy
5:47 PM 93.2 °F 91.9 °F 57.2 °F 30% 29.82 in 10.0 mi WSW 10.4 mph 16.1 mph N/A Thunderstorm Mostly Cloudy
6:47 PM 93.2 °F 91.3 °F 55.4 °F 28% 29.83 in 20.0 mi SSW 5.8 mph - N/A   Mostly Cloudy
7:47 PM 93.2 °F 91.9 °F 57.2 °F 30% 29.86 in 20.0 mi Variable 3.5 mph - N/A   Mostly Cloudy
7:55 PM 93.2 °F 91.9 °F 57.2 °F 30% 29.87 in 10.0 mi Calm Calm - N/A   Clear
8:15 PM 93.2 °F 91.9 °F 57.2 °F 30% 29.87 in 10.0 mi Calm Calm - N/A   Clear
8:35 PM 93.2 °F 91.9 °F 57.2 °F 30% 29.87 in 10.0 mi Calm Calm - N/A   Clear
8:47 PM 93.2 °F 91.9 °F 57.2 °F 30% 29.87 in 20.0 mi WSW 4.6 mph - N/A   Mostly Cloudy
8:55 PM 93.2 °F 91.9 °F 57.2 °F 30% 29.87 in 10.0 mi West 4.6 mph - N/A   Clear
9:15 PM 93.2 °F 91.9 °F 57.2 °F 30% 29.89 in 10.0 mi SW 4.6 mph - N/A   Clear
9:35 PM 91.4 °F 89.1 °F 53.6 °F 28% 29.90 in 10.0 mi SW 9.2 mph - N/A   Clear
9:47 PM 91.4 °F 89.4 °F 55.4 °F 29% 29.90 in 20.0 mi WSW 8.1 mph - N/A   Mostly Cloudy
9:55 PM 89.6 °F 87.7 °F 55.4 °F 31% 29.91 in 10.0 mi SW 9.2 mph - N/A   Clear
10:15 PM 87.8 °F 86.1 °F 55.4 °F 33% 29.92 in 7.0 mi SW 17.3 mph 20.7 mph N/A   Clear
10:35 PM 86.0 °F 84.5 °F 55.4 °F 35% 29.93 in 10.0 mi SW 12.7 mph - N/A   Clear
10:47 PM 87.8 °F 86.5 °F 57.2 °F 35% 29.94 in 20.0 mi SSW 13.8 mph - N/A   Mostly Cloudy
10:55 PM 86.0 °F 84.9 °F 57.2 °F 37% 29.94 in 10.0 mi SSW 8.1 mph - N/A   Clear
11:15 PM 86.0 °F 84.9 °F 57.2 °F 37% 29.95 in 10.0 mi SW 8.1 mph - N/A   Clear
11:35 PM 86.0 °F 84.5 °F 55.4 °F 35% 29.95 in 10.0 mi SW 5.8 mph - N/A   Clear
11:47 PM 86.0 °F 84.5 °F 55.4 °F 35% 29.95 in 20.0 mi WSW 9.2 mph - N/A   Mostly Cloudy
11:55 PM 84.2 °F 83.0 °F 55.4 °F 37% 29.96 in 10.0 mi Calm Calm - N/A   Clear